Location: ??????
(30.5519°N, 47.7720°E)
Time: 17:49:05
(UTC+00:00)

Hubble Space Telescope - Pass Details

Date: 24 January 2021
Orbit: 536 x 539 km, 28.5° (Epoch: 01 March)

Event Time Altitude Azimuth Distance (km) Brightness Sun altitude
Rises 15:45:36 0° 272° (W) 2,674 5.8 -18.8°
Reaches altitude 10° 15:47:54 10° 266° (W) 1,784 4.6 -19.3°
Maximum altitude 15:51:53 48° 192° (SSW) 703 1.4 -20.2°
Enters shadow 15:53:04 36° 145° (SE) 853 1.5 -20.4°
